Weather observations for the past three days for
King Airport, St. Thomas
| Date | Time (ast) | Wind (mph) | Vis. (mi.) | Weather | Sky Cond. | Temperature (ºF) | Relative Humidity | Wind Chill (°F) | Heat Index (°F) | Pressure | Precipitation (in) | ||||||
|---|---|---|---|---|---|---|---|---|---|---|---|---|---|---|---|---|---|
| Air | Dwpt | 6 hour | altimeter (in) | sea level (mb) | 1 hr | 3 hr | 6 hr | ||||||||||
| Max. | Min. | ||||||||||||||||
| 05 | 20:53 | SE 6 | 10.00 | Fair | CLR | 84.2 | 77 | 79% | 94 | 29.95 | 0.0 | ||||||
| 05 | 19:53 | SE 7 | 10.00 | A Few Clouds | FEW030 | 84.2 | 77 | 79% | 94 | 29.94 | 0.0 | ||||||
| 05 | 17:53 | SE 12 | 10.00 | Partly Cloudy | SCT030 | 88 | 77 | 70% | 100 | 29.91 | 1013.7 | ||||||
| 05 | 16:53 | SE 16 | 10.00 | Partly Cloudy | SCT030 | 89.6 | 77 | 67% | 103 | 29.9 | 0.0 | ||||||
| 05 | 15:53 | SE 14 | 10.00 | Partly Cloudy | SCT030 | 89.6 | 77 | 67% | 103 | 29.9 | 0.0 | ||||||
| 05 | 12:53 | SE 12 | 10.00 | Partly Cloudy | SCT025 | 86 | 77 | 75% | 97 | 29.93 | 1014.4 | ||||||
| 05 | 11:53 | SE 14 | 10.00 | Partly Cloudy | SCT030 | 86 | 77 | 75% | 97 | 29.95 | 0.0 | ||||||
| 05 | 10:53 | SE 14 | 10.00 | Partly Cloudy | SCT030 | 84.2 | 77 | 79% | 94 | 29.96 | 0.0 | ||||||
| 05 | 09:53 | E 6 | 10.00 | Partly Cloudy | SCT030 | 82 | 77 | 85% | 90 | 29.97 | 1015.8 | ||||||
| 05 | 08:53 | E 6 | 10.00 | Partly Cloudy | SCT030 | 82.4 | 77 | 84% | 91 | 29.96 | 0.0 | ||||||
| 05 | 07:53 | E 9 | 10.00 | Partly Cloudy | SCT030 | 82.4 | 77 | 84% | 91 | 29.96 | 0.0 | ||||||
| 04 | 20:53 | SE 10 | 10.00 | A Few Clouds | FEW030 | 86 | 77 | 75% | 97 | 29.98 | 0.0 | ||||||
| 04 | 19:53 | SE 10 | 10.00 | A Few Clouds | FEW030 | 86 | 77 | 75% | 97 | 29.97 | 1015.8 | ||||||
| 04 | 18:53 | SE 12 | 10.00 | A Few Clouds | FEW020 | 90 | 77 | 66% | 103 | 29.95 | 1015.1 | ||||||
| 04 | 17:53 | SE 12 | 10.00 | A Few Clouds | FEW020 | 91.4 | 77 | 63% | 105 | 29.94 | 0.0 | ||||||
| 04 | 16:53 | SE 14 | 10.00 | Partly Cloudy | SCT030 | 88 | 77 | 70% | 100 | 29.94 | 1014.7 | ||||||
| 04 | 15:53 | SE 12 | 10.00 | Partly Cloudy | SCT030 | 91.4 | 77 | 63% | 105 | 29.94 | 0.0 | ||||||
| 04 | 14:53 | SE 14 | 10.00 | Partly Cloudy | SCT030 | 89.6 | 77 | 67% | 103 | 29.95 | 0.0 | ||||||
| 04 | 13:53 | SE 12 | 10.00 | Partly Cloudy | SCT030 | 89.6 | 77 | 67% | 103 | 29.98 | 0.0 | ||||||
| 04 | 12:53 | SE 17 | 10.00 | Partly Cloudy | SCT030 | 100.4 | 77 | 47% | 117 | 29.99 | 0.0 | ||||||
| 04 | 11:53 | SE 17 | 10.00 | Partly Cloudy | SCT030 | 87.8 | 75.2 | 66% | 98 | 30.01 | 0.0 | ||||||
| 04 | 10:53 | SE 17 | 10.00 | Partly Cloudy | SCT030 | 87.8 | 75.2 | 66% | 98 | 30.01 | 0.0 | ||||||
| 04 | 09:53 | SE 12 | 10.00 | Partly Cloudy | SCT030 | 86 | 77 | 75% | 97 | 30.01 | 0.0 | ||||||
| 04 | 07:53 | E 12 | 10.00 | A Few Clouds | FEW030 | 84.2 | 77 | 79% | 94 | 29.98 | 0.0 | ||||||
| 03 | 20:53 | E 12 | 10.00 | Partly Cloudy | SCT030 | 87.8 | 71.6 | 59% | 94 | 29.99 | 0.0 | ||||||
| 03 | 19:53 | SE 13 | 10.00 | Partly Cloudy | SCT030 | 88 | 73 | 61% | 96 | 29.97 | 1015.8 | ||||||
| 03 | 17:53 | SE 14 | 10.00 | Partly Cloudy | SCT035 | 89.6 | 73.4 | 59% | 98 | 29.95 | 0.0 | ||||||
| 03 | 16:53 | SE 14 | 10.00 | Partly Cloudy | SCT030 | 89.6 | 73.4 | 59% | 98 | 29.95 | 0.0 | ||||||
| 03 | 15:53 | SE 14 | 10.00 | Partly Cloudy | SCT030 | 90 | 73 | 58% | 98 | 29.94 | 1014.7 | ||||||
| 03 | 14:53 | SE 14 | 10.00 | Partly Cloudy | SCT030 | 89.6 | 73.4 | 59% | 98 | 29.95 | 0.0 | ||||||
| 03 | 13:53 | SE 15 | 10.00 | Partly Cloudy | SCT030 | 89.6 | 73.4 | 59% | 98 | 29.96 | 0.0 | ||||||
| 03 | 12:53 | SE 15 | 10.00 | Partly Cloudy | SCT030 | 89.6 | 73.4 | 59% | 98 | 29.98 | 0.0 | ||||||
| 03 | 11:53 | SE 14 | 10.00 | Partly Cloudy | SCT030 | 87.8 | 73.4 | 62% | 96 | 29.99 | 0.0 | ||||||
| 03 | 10:53 | SE 12 | 10.00 | Partly Cloudy | SCT030 | 86 | 73.4 | 66% | 93 | 30.01 | 0.0 | ||||||
| 03 | 08:53 | E 7 | 10.00 | Partly Cloudy | SCT030 | 84.2 | 73.4 | 70% | 91 | 29.99 | 0.0 | ||||||
| 03 | 06:53 | E 6 | 10.00 | Fair | CLR | 80.6 | 75.2 | 84% | 86 | 29.97 | 0.0 | ||||||
| Date | Time (ast) | Wind (mph) | Vis. (mi.) | Weather | Sky Cond. | Air | Dwpt | Max. | Min. | Relative Humidity | Wind Chill (°F) | Heat Index (°F) | altimeter (in) | sea level (mb) | 1 hr | 3 hr | 6 hr |
| 6 hour | |||||||||||||||||
| Temperature (ºF) | Pressure | Precipitation (in) | |||||||||||||||